Location: Chevoux
(46.3801°N, 4.9476°E)
Time: 23:57:50
(UTC+00:00)

X-37B - Visible Passes

Search period start: 19 April 2021 00:00
Search period end: 29 April 2021 00:00
Orbit: 380 x 394 km, 45.0° (Epoch: 07 April)

Date Brightness Start Highest point End Pass type
(mag) Time Alt. Az. Time Alt. Az. Time Alt. Az.
19 Apr 2.9 02:20:32 18° ESE 02:20:32 18° ESE 02:21:46 10° E visible
19 Apr 0.7 03:52:48 14° WSW 03:55:27 61° S 03:58:36 10° E visible
20 Apr 0.9 02:56:51 47° S 02:57:08 48° SSE 03:00:14 10° E visible
21 Apr 3.1 02:00:54 17° E 02:00:54 17° E 02:01:49 10° E visible
21 Apr 0.6 03:33:10 19° WSW 03:35:18 69° S 03:38:29 10° E visible
22 Apr 0.8 02:37:13 58° SE 02:37:13 58° SE 02:40:07 10° E visible
23 Apr 3.5 01:41:19 13° E 01:41:19 13° E 01:41:45 10° E visible
23 Apr 0.5 03:13:35 27° W 03:15:10 69° S 03:18:20 10° E visible
24 Apr 1.5 02:17:43 42° ESE 02:17:43 42° ESE 02:20:00 10° E visible
24 Apr 1.0 03:50:14 10° W 03:53:19 47° SSW 03:56:24 10° ESE visible
25 Apr 0.6 02:54:14 43° WSW 02:55:01 60° S 02:58:10 10° ESE visible
26 Apr 2.7 01:58:36 22° ESE 01:58:36 22° ESE 01:59:51 10° E visible
26 Apr 1.4 03:30:53 15° W 03:33:06 33° SSW 03:36:01 10° SE visible
27 Apr 1.2 02:35:27 40° SSE 02:35:27 40° SSE 02:37:55 10° ESE visible
28 Apr 1.9 03:12:36 22° SW 03:12:50 22° SSW 03:15:24 10° SSE visible
